Weather History for KPBG - December, 2012

Change the Weather History Date:

Thursday, December 6, 2012

  Actual Average Record
Temperature  
Mean Temperature 27 °F 28 °F  
Max Temperature 32 °F 36 °F 61 °F (1982)
Min Temperature 22 °F 20 °F 5 °F (1969)
Degree Days  
Heating Degree Days 38 37  
Month to date heating degree days 171 214  
Since 1 July heating degree days 1734 1848  
Cooling Degree Days 0 0  
Month to date cooling degree days 0  
Year to date cooling degree days 346  
Moisture  
Dew Point 17 °F    
Average Humidity 71    
Maximum Humidity 88    
Minimum Humidity 53    
Precipitation  
Precipitation 0.00 in - 1.20 in (1977)
Month to date precipitation 0.46  
Year to date precipitation 25.04  
Sea Level Pressure  
Sea Level Pressure 30.32 in    
Wind  
Wind Speed 4 mph (West)    
Max Wind Speed 15 mph    
Max Gust Speed 21 mph    
Visibility 10 miles    
Events      
T = Trace of Precipitation, MM = Missing Value Source: NWS Daily Summary

Daily Weather History Graph

Daily Weather History Graph

Search for Another Location

Airport or City:

Trip Planner

Search our weather history database for the weather conditions in past years. The results will help you decide how hot, cold, wet, or windy it might be!

Date:

Astronomy

Dec. 06, 2012 Rise Set
Actual Time 7:16 AM EST 4:13 PM EST
Civil Twilight 6:43 AM EST 4:46 PM EST
Nautical Twilight 6:06 AM EST 5:23 PM EST
Astronomical Twilight 5:31 AM EST 5:58 PM EST
Moon No Moon Rise 11:53 AM EST (12/6)
Length of Visible Light 10h 03m
Length of Day
8h 57m
Waning Gibbous, 49% of the Moon is Illuminated
Dec 6
Waning Gibbous
Dec 13
New
Dec 20
First Quarter
Dec 28
Full
Jan 4
Last Quarter

Hourly Weather History & Observations

Time (EST) Temp. Windchill Dew Point Humidity Pressure Visibility Wind Dir Wind Speed Gust Speed Precip Events Conditions
12:53 AM 28.0 °F 17.5 °F 15.1 °F 58% 30.28 in 10.0 mi NNW 12.7 mph 18.4 mph N/A   Overcast
1:53 AM 28.0 °F 19.3 °F 16.0 °F 61% 30.31 in 10.0 mi NW 9.2 mph - N/A   Overcast
2:53 AM 27.0 °F 18.0 °F 15.1 °F 61% 30.33 in 10.0 mi NW 9.2 mph - N/A   Overcast
3:53 AM 26.1 °F 20.5 °F 15.1 °F 63% 30.35 in 10.0 mi NW 4.6 mph - N/A   Overcast
4:53 AM 27.0 °F - 15.1 °F 61% 30.37 in 10.0 mi Calm Calm - N/A   Overcast
5:53 AM 26.1 °F 19.4 °F 15.1 °F 63% 30.38 in 10.0 mi NW 5.8 mph - N/A   Overcast
6:53 AM 23.0 °F 17.0 °F 14.0 °F 68% 30.40 in 10.0 mi NNW 4.6 mph - N/A   Partly Cloudy
7:53 AM 23.0 °F - 16.0 °F 74% 30.42 in 10.0 mi Calm Calm - N/A   Clear
8:53 AM 27.0 °F - 16.0 °F 63% 30.42 in 10.0 mi Calm Calm - N/A   Clear
9:53 AM 28.0 °F 22.8 °F 15.1 °F 58% 30.42 in 10.0 mi NNW 4.6 mph - N/A   Clear
10:53 AM 30.9 °F - 15.1 °F 52% 30.39 in 10.0 mi Calm Calm - N/A   Clear
11:53 AM 30.9 °F 25.2 °F 17.1 °F 57% 30.36 in 10.0 mi Variable 5.8 mph - N/A   Clear
12:53 PM 30.0 °F 23.2 °F 18.0 °F 61% 30.34 in 10.0 mi East 6.9 mph - N/A   Clear
1:53 PM 30.9 °F 27.5 °F 18.0 °F 59% 30.32 in 10.0 mi SE 3.5 mph - N/A   Clear
2:53 PM 30.9 °F 25.2 °F 18.0 °F 59% 30.31 in 10.0 mi South 5.8 mph - N/A   Clear
3:53 PM 28.9 °F 25.2 °F 19.0 °F 67% 30.30 in 10.0 mi South 3.5 mph - N/A   Clear
4:53 PM 28.0 °F 22.8 °F 18.0 °F 66% 30.28 in 10.0 mi SW 4.6 mph - N/A   Clear
5:53 PM 27.0 °F 21.6 °F 18.0 °F 69% 30.27 in 10.0 mi South 4.6 mph - N/A   Clear
6:53 PM 24.1 °F - 19.0 °F 81% 30.27 in 10.0 mi Calm Calm - N/A   Clear
8:53 PM 24.1 °F 19.7 °F 19.0 °F 81% 30.23 in 10.0 mi WSW 3.5 mph - N/A   Clear
9:53 PM 25.0 °F 20.7 °F 19.0 °F 78% 30.21 in 10.0 mi SW 3.5 mph - N/A   Clear
10:53 PM 25.0 °F 19.3 °F 21.0 °F 85% 30.18 in 10.0 mi South 4.6 mph - N/A   Clear
11:53 PM 25.0 °F - 19.9 °F 81% 30.16 in 10.0 mi Calm Calm - N/A   Clear